Brunswick, GA

12:39 AM EDT on September 24, 2017 (GMT -0400)
Glynco Jetport

Weather History for KBQK - June, 2013

Change the Weather History Date:

Saturday, June 29, 2013

  Actual Average Record
Temperature  
Mean Temperature 81 °F -  
Max Temperature 87 °F 91 °F 102 °F (1959)
Min Temperature 75 °F 71 °F 61 °F (1970)
Cooling Degree Days 16    
Growing Degree Days 31 (Base 50)    
Moisture  
Dew Point 72 °F    
Average Humidity 73    
Maximum Humidity 89    
Minimum Humidity 55    
Precipitation  
Precipitation 0.00 in - - ()
Sea Level Pressure  
Sea Level Pressure 29.78 in    
Wind  
Wind Speed 10 mph (SW)    
Max Wind Speed 15 mph    
Max Gust Speed 21 mph    
Visibility 10 miles    
Events Thunderstorm    
Averages and records for this station are not official NWS values.
T = Trace of Precipitation, MM = Missing Value Source: NWS Daily Summary

Daily Weather History Graph

Daily Weather History Graph

Search for Another Location

Airport or City:

Trip Planner

Search our weather history database for the weather conditions in past years. The results will help you decide how hot, cold, wet, or windy it might be!

Date:

Astronomy

Jun. 29, 2013 Rise Set
Actual Time 6:24 AM EDT 8:34 PM EDT
Civil Twilight 5:56 AM EDT 9:02 PM EDT
Nautical Twilight 5:22 AM EDT 9:35 PM EDT
Astronomical Twilight 4:46 AM EDT 10:12 PM EDT
Moon 12:28 AM EDT (6/29) 1:06 PM EDT (6/29)
Length of Visible Light 15h 05m
Length of Day
14h 09m
Waning Gibbous, 56% of the Moon is Illuminated
Jun 29
Waning Gibbous
Jun 30
Last Quarter
Jul 8
New
Jul 15
First Quarter
Jul 22
Full

Hourly Weather History & Observations

Time (EDT) Temp. Heat Index Dew Point Humidity Pressure Visibility Wind Dir Wind Speed Gust Speed Precip Events Conditions
12:15 AM 77.0 °F - 71.6 °F 83% 29.77 in 10.0 mi SSW 9.2 mph 16.1 mph N/A   Clear
12:35 AM 77.0 °F - 71.6 °F 83% 29.77 in 10.0 mi SW 9.2 mph 16.1 mph N/A   Clear
12:55 AM 77.0 °F - 71.6 °F 83% 29.77 in 10.0 mi SW 10.4 mph - N/A   Clear
1:15 AM 77.0 °F - 71.6 °F 83% 29.77 in 10.0 mi SW 10.4 mph - N/A   Clear
1:35 AM 77.0 °F - 71.6 °F 83% 29.77 in 10.0 mi SSW 11.5 mph - N/A   Clear
1:55 AM 77.0 °F - 71.6 °F 83% 29.77 in 10.0 mi SSW 10.4 mph 17.3 mph N/A   Clear
2:15 AM 77.0 °F - 71.6 °F 83% 29.77 in 10.0 mi SW 12.7 mph 17.3 mph N/A   Clear
2:35 AM 77.0 °F - 71.6 °F 83% 29.77 in 10.0 mi SW 12.7 mph 17.3 mph N/A   Clear
2:55 AM 77.0 °F - 71.6 °F 83% 29.77 in 10.0 mi SW 10.4 mph - N/A   Clear
3:15 AM 77.0 °F - 71.6 °F 83% 29.77 in 10.0 mi WSW 11.5 mph 16.1 mph N/A   Clear
3:35 AM 77.0 °F - 71.6 °F 83% 29.77 in 10.0 mi SW 12.7 mph 16.1 mph N/A   Clear
3:55 AM 77.0 °F - 69.8 °F 78% 29.77 in 10.0 mi SW 12.7 mph - N/A   Clear
4:15 AM 77.0 °F - 69.8 °F 78% 29.78 in 10.0 mi WSW 10.4 mph - N/A   Clear
4:35 AM 77.0 °F - 69.8 °F 78% 29.78 in 10.0 mi WSW 9.2 mph - N/A   Clear
4:55 AM 77.0 °F - 69.8 °F 78% 29.77 in 10.0 mi SW 6.9 mph - N/A   Clear
5:15 AM 77.0 °F - 69.8 °F 78% 29.78 in 10.0 mi WSW 6.9 mph - N/A   Clear
5:35 AM 77.0 °F - 69.8 °F 78% 29.78 in 10.0 mi SW 6.9 mph - N/A   Scattered Clouds
5:55 AM 75.2 °F - 69.8 °F 83% 29.79 in 10.0 mi SW 4.6 mph - N/A   Clear
6:15 AM 75.2 °F - 69.8 °F 83% 29.79 in 10.0 mi SW 3.5 mph - N/A   Clear
6:35 AM 77.0 °F - 71.6 °F 83% 29.79 in 10.0 mi SSW 5.8 mph - N/A   Scattered Clouds
6:55 AM 77.0 °F - 71.6 °F 83% 29.78 in 10.0 mi SSW 5.8 mph - N/A   Scattered Clouds
7:15 AM 77.0 °F - 71.6 °F 83% 29.79 in 10.0 mi SSW 6.9 mph - N/A   Mostly Cloudy
7:35 AM 77.0 °F - 71.6 °F 83% 29.79 in 10.0 mi SW 6.9 mph - N/A   Scattered Clouds
7:55 AM 77.0 °F - 73.4 °F 89% 29.79 in 10.0 mi SW 6.9 mph - N/A   Mostly Cloudy
8:15 AM 78.8 °F - 73.4 °F 83% 29.79 in 10.0 mi SW 6.9 mph - N/A   Mostly Cloudy
8:35 AM 78.8 °F - 73.4 °F 83% 29.79 in 10.0 mi SW 6.9 mph - N/A   Mostly Cloudy
8:55 AM 78.8 °F - 73.4 °F 83% 29.79 in 10.0 mi SSW 8.1 mph - N/A   Mostly Cloudy
9:15 AM 80.6 °F 85.4 °F 73.4 °F 79% 29.79 in 10.0 mi SW 11.5 mph - N/A   Mostly Cloudy
9:35 AM 80.6 °F 85.4 °F 73.4 °F 79% 29.80 in 10.0 mi SW 13.8 mph 18.4 mph N/A   Mostly Cloudy
9:55 AM 80.6 °F 85.4 °F 73.4 °F 79% 29.79 in 10.0 mi SW 10.4 mph - N/A   Scattered Clouds
10:15 AM 80.6 °F 85.4 °F 73.4 °F 79% 29.80 in 10.0 mi WSW 15.0 mph - N/A   Scattered Clouds
10:35 AM 80.6 °F 84.6 °F 71.6 °F 74% 29.80 in 10.0 mi WSW 11.5 mph 18.4 mph N/A   Clear
10:55 AM 82.4 °F 88.2 °F 73.4 °F 74% 29.80 in 10.0 mi WSW 8.1 mph - N/A Thunderstorm Clear
11:15 AM 82.4 °F 87.2 °F 71.6 °F 70% 29.80 in 10.0 mi SW 11.5 mph 17.3 mph N/A   Scattered Clouds
11:35 AM 86.0 °F 91.8 °F 71.6 °F 62% 29.80 in 10.0 mi WSW 9.2 mph - N/A   Scattered Clouds
11:55 AM 84.2 °F 89.6 °F 71.6 °F 66% 29.80 in 10.0 mi WSW 13.8 mph - N/A   Scattered Clouds
12:15 PM 86.0 °F 91.8 °F 71.6 °F 62% 29.80 in 10.0 mi WSW 12.7 mph 16.1 mph N/A   Clear
12:35 PM 87.8 °F 93.8 °F 71.6 °F 58% 29.80 in 10.0 mi WSW 15.0 mph 20.7 mph N/A   Clear
12:55 PM 86.0 °F 91.8 °F 71.6 °F 62% 29.78 in 10.0 mi SW 11.5 mph 17.3 mph N/A   Scattered Clouds
1:15 PM 87.8 °F 93.8 °F 71.6 °F 58% 29.78 in 10.0 mi SSW 11.5 mph - N/A   Scattered Clouds
1:35 PM 87.8 °F 93.8 °F 71.6 °F 58% 29.78 in 10.0 mi SW 13.8 mph - N/A   Scattered Clouds
1:55 PM 86.0 °F 91.8 °F 71.6 °F 62% 29.77 in 10.0 mi SW 13.8 mph - N/A   Mostly Cloudy
2:15 PM 86.0 °F 91.8 °F 71.6 °F 62% 29.78 in 10.0 mi SW 12.7 mph 17.3 mph N/A   Scattered Clouds
2:35 PM 86.0 °F 90.4 °F 69.8 °F 58% 29.77 in 10.0 mi SW 11.5 mph 18.4 mph N/A   Scattered Clouds
2:55 PM 87.8 °F 93.8 °F 71.6 °F 58% 29.77 in 10.0 mi SSW 13.8 mph 19.6 mph N/A   Scattered Clouds
3:15 PM 87.8 °F 92.6 °F 69.8 °F 55% 29.77 in 10.0 mi SW 15.0 mph 18.4 mph N/A   Scattered Clouds
3:35 PM 86.0 °F 91.8 °F 71.6 °F 62% 29.77 in 10.0 mi WSW 11.5 mph 19.6 mph N/A   Scattered Clouds
3:55 PM 87.8 °F 93.8 °F 71.6 °F 58% 29.76 in 10.0 mi SSW 9.2 mph - N/A   Scattered Clouds
4:15 PM 87.8 °F 93.8 °F 71.6 °F 58% 29.75 in 10.0 mi SSW 10.4 mph 16.1 mph N/A   Scattered Clouds
4:35 PM 87.8 °F 93.8 °F 71.6 °F 58% 29.75 in 10.0 mi SSW 11.5 mph 19.6 mph N/A   Scattered Clouds
4:55 PM 87.8 °F 93.8 °F 71.6 °F 58% 29.75 in 10.0 mi SW 11.5 mph - N/A   Scattered Clouds
5:15 PM 86.0 °F 91.8 °F 71.6 °F 62% 29.75 in 10.0 mi WSW 11.5 mph 19.6 mph N/A   Scattered Clouds
5:35 PM 86.0 °F 91.8 °F 71.6 °F 62% 29.74 in 10.0 mi SSW 11.5 mph - N/A   Scattered Clouds
5:55 PM 86.0 °F 91.8 °F 71.6 °F 62% 29.74 in 10.0 mi SW 12.7 mph - N/A   Mostly Cloudy
6:15 PM 86.0 °F 91.8 °F 71.6 °F 62% 29.74 in 10.0 mi SSW 6.9 mph - N/A   Scattered Clouds
6:35 PM 86.0 °F 93.4 °F 73.4 °F 66% 29.74 in 10.0 mi SSW 10.4 mph - N/A   Mostly Cloudy
6:55 PM 86.0 °F 93.4 °F 73.4 °F 66% 29.74 in 10.0 mi SSW 5.8 mph - N/A   Mostly Cloudy
7:15 PM 84.2 °F 90.9 °F 73.4 °F 70% 29.75 in 10.0 mi SSW 5.8 mph - N/A   Scattered Clouds
7:35 PM 84.2 °F 89.6 °F 71.6 °F 66% 29.76 in 10.0 mi South 8.1 mph - N/A   Mostly Cloudy
7:55 PM 82.4 °F 87.2 °F 71.6 °F 70% 29.76 in 10.0 mi SSW 8.1 mph - N/A   Scattered Clouds
8:15 PM 82.4 °F 87.2 °F 71.6 °F 70% 29.77 in 10.0 mi SSW 5.8 mph - N/A   Scattered Clouds
8:35 PM 82.4 °F 87.2 °F 71.6 °F 70% 29.77 in 10.0 mi South 6.9 mph - N/A   Scattered Clouds
8:55 PM 82.4 °F 87.2 °F 71.6 °F 70% 29.77 in 10.0 mi SSW 12.7 mph - N/A   Clear
9:15 PM 82.4 °F 87.2 °F 71.6 °F 70% 29.77 in 10.0 mi South 8.1 mph - N/A   Clear
9:35 PM 82.4 °F 87.2 °F 71.6 °F 70% 29.77 in 10.0 mi South 8.1 mph - N/A   Clear
9:55 PM 82.4 °F 88.2 °F 73.4 °F 74% 29.79 in 10.0 mi South 10.4 mph - N/A   Clear
10:15 PM 82.4 °F 88.2 °F 73.4 °F 74% 29.80 in 10.0 mi SSW 8.1 mph - N/A   Scattered Clouds
10:35 PM 82.4 °F 88.2 °F 73.4 °F 74% 29.80 in 10.0 mi South 9.2 mph - N/A   Scattered Clouds
10:55 PM 80.6 °F 85.4 °F 73.4 °F 79% 29.80 in 10.0 mi South 6.9 mph - N/A   Clear
11:15 PM 80.6 °F 85.4 °F 73.4 °F 79% 29.79 in 10.0 mi South 6.9 mph - N/A   Clear
11:35 PM 80.6 °F 85.4 °F 73.4 °F 79% 29.79 in 10.0 mi South 13.8 mph 18.4 mph N/A   Clear
11:55 PM 80.6 °F 84.6 °F 71.6 °F 74% 29.80 in 10.0 mi SSW 12.7 mph 19.6 mph N/A   Clear